Location: Home
(42.5358°N, 72.7383°W)
Time: 07:10:46
(UTC-05:00)

Courier 1B - Pass Details

Date: 05 December 2021
Orbit: 962 x 1209 km, 28.3° (Epoch: 25 January)

Event Time Altitude Azimuth Distance (km) Brightness Sun altitude
Rises 20:35:24 0° 254° (WSW) 3,886 11.2 -46.6°
Enters shadow 20:39:36 - 231° (SW) 2,948 10.3 -47.3°
Reaches altitude 10° 20:40:10 10° 227° (SW) 2,863 - -47.4°
Maximum altitude 20:42:48 12° 204° (SSW) 2,653 - -47.9°
Drops below altitude 10° 20:45:24 10° 181° (S) 2,794 - -48.4°
Sets 20:49:55 0° 153° (SSE) 3,692 - -49.2°
